GCFVLEAS

Guest
Details From GCFV - Fuerteventura
To LEAS - Asturias
Flight Number -
Tags decoded
Created
Modified
Stats Distance 983 nm / 1,821 km
Max Altitude 0 ft / 0 m
Waypoints 2
Social Downloads 0
Likes 0
Share VATSIM

Download

Looking for another format? Having issues loading an existing format? Contact us
Advertisement - Login to hide

Notes

Requested: GCFV LEAS

Route

GCFV LEAS

ID Type Via Altitude Latitude Longitude Leg Dist Tot Dist Heading (true) Name
O GCFV APT - 0 ft / 0 m 28.44788˚ -13.86489˚ - 0 nm - Fuerteventura
O LEAS APT - 0 ft / 0 m 43.56350˚ -6.03467˚ 983 nm 983 nm 21° / 25° Asturias

Altitude Profile

Advertisement - Login to hide

Weather


0- 5 10 15 20 25 30 35+ Temperature / ° C

Clouds and Precipitation
Forecast for 2018-05-21 06:00 UTC. Updated 33 minutes ago

Ground ~20,000 ft ~40,000 ft Winds

GCFV

Details ICAO GCFV (FUE)
Name Fuerteventura
Region Canary Islands
Timezone Atlantic/Canary (UTC+1.0)
Stats Elevation 85 ft / 26 m (AMSL)
Location 28.447882° -13.864892°
Runways 2
Magnetic Variation 4.049° W

METAR

GCFV 210330Z 33008KT 9999 FEW030 BKN045 18/13 Q1015

Decode

TAF

TAF GCFV 210200Z 2103/2203 34005KT 9999 BKN040 TX24/2115Z TN17/2105Z PROB30 TEMPO 2104/2109 DZRA

Decode

Departure Runways

ID Width Length Bearing (true) Bearing (mag) Surface Threshold Offset Overrun Length
01L 148 ft / 45 m 5,433 ft / 1,656 m 1.67° 5.72° Asphalt 0 ft / 0 m 984 ft / 300 m
01R 148 ft / 45 m 7,905 ft / 2,409 m 1.66° 5.71° Asphalt 0 ft / 0 m 3,281 ft / 1,000 m
19L 148 ft / 45 m 7,905 ft / 2,409 m 181.66° 185.71° Asphalt 0 ft / 0 m 197 ft / 60 m
19R 148 ft / 45 m 5,433 ft / 1,656 m 181.67° 185.72° Asphalt 0 ft / 0 m 820 ft / 250 m

LEAS

Details ICAO LEAS (OVD)
Name Asturias
Region Spain
Timezone Europe/Madrid (UTC+2.0)
Stats Elevation 416 ft / 127 m (AMSL)
Location 43.563496° -6.034670°
Runways 1
Magnetic Variation 1.572° W

METAR

LEAS 210330Z 17003KT CAVOK 11/10 Q1011 NOSIG

Decode

TAF

TAF LEAS 210200Z 2103/2203 VRB03KT 8000 FEW020 TX19/2114Z TN11/2107Z PROB40 TEMPO 2106/2109 3000 BR BKN010 BECMG 2108/2112 03010KT PROB40 TEMPO 2112/2121 SCT030TCU BECMG 2118/2122 VRB03KT PROB40 TEMPO 2121/2203 3000 BR BKN005 BKN010 PROB40 TEMPO 2200/2203 0600 BCFG VV002

Decode

Destination Runways

ID Width Length Bearing (true) Bearing (mag) Surface Threshold Offset Overrun Length
11 148 ft / 45 m 7,216 ft / 2,200 m 108.09° 109.66° Asphalt 0 ft / 0 m 164 ft / 50 m
29 148 ft / 45 m 7,216 ft / 2,200 m 288.10° 289.67° Asphalt 0 ft / 0 m 164 ft / 50 m

Approach Navaids

Runway Type Ident Frequency Range Bearing (true) Bearing (mag) Slope Elevation
29 Localiser AVS 110.10 MHz 18 nm / 33 km 288.30° 289.87° - 416 ft / 127 m (AMSL)
29 Glidescope AVS 110.10 MHz 10 nm / 19 km 288.09° 289.67° 3.00° 416 ft / 127 m (AMSL)
29 DME AVS 110.10 MHz 18 nm / 33 km - - - 430 ft / 131 m (AMSL)

Popular Alternatives